Location: Reutlingen
(48.4911°N, 9.2587°E)
Time: 13:48:58
(UTC+02:00)

Tiangong 2 - Visible Passes

Search period start: 19 July 2018 00:00
Search period end: 29 July 2018 00:00
Orbit: 386 x 394 km, 42.8° (Epoch: 19 July)

Date Brightness Start Highest point End Pass type
(mag) Time Alt. Az. Time Alt. Az. Time Alt. Az.
19 Jul 2.5 22:25:25 10° WSW 22:28:01 23° SSW 22:29:45 15° SSE visible
20 Jul 3.3 23:05:06 10° SW 23:06:44 13° SSW 23:06:46 13° SSW visible
21 Jul 3.0 22:07:00 10° WSW 22:09:16 18° SSW 22:11:28 10° SSE visible
